{"data":{"norad_id":40059,"epoch":"2026-05-25T03:37:27.537888Z","epoch_age_seconds":62265,"freshness":"FRESH","line1":"1 40059U 14035A   26145.15101317  .00000360  00000+0  89969-4 0  9991","line2":"2 40059  98.2011  86.7966 0001416  88.1016 272.0345 14.57088591632696","mean_motion":14.57088591,"eccentricity":0.0001416,"inclination_deg":98.2011,"raan_deg":86.7966,"arg_perigee_deg":88.1016,"mean_anomaly_deg":272.0345,"bstar":8.9969e-5,"rev_number":63269,"period_min":98.827209882395,"perigee_km":701.58768216805,"apogee_km":703.59294414313,"semimajor_km":7080.7273131556,"source":"CELESTRAK","updated_at":"2026-05-25T13:38:24.643561Z"}}